TimeEDT,TemperatureF,Dew PointF,Humidity,Sea Level PressureIn,VisibilityMPH,Wind Direction,Wind SpeedMPH,Gust SpeedMPH,PrecipitationIn,Events,Conditions,WindDirDegrees,DateUTC
12:53 AM,62.1,53.1,72,30.13,10.0,NE,3.5,-,N/A,,Clear,50,2012-03-22 04:53:00
1:53 AM,64.0,51.1,63,30.14,10.0,Calm,Calm,-,N/A,,Clear,0,2012-03-22 05:53:00
2:53 AM,59.0,52.0,78,30.14,10.0,North,3.5,-,N/A,,Clear,10,2012-03-22 06:53:00
3:53 AM,60.1,53.1,78,30.14,10.0,NNW,3.5,-,N/A,,Clear,340,2012-03-22 07:53:00
4:53 AM,61.0,53.1,75,30.12,10.0,NW,5.8,-,N/A,,Clear,310,2012-03-22 08:53:00
5:53 AM,59.0,54.0,83,30.11,10.0,Variable,4.6,-,N/A,,Clear,0,2012-03-22 09:53:00
6:53 AM,55.9,53.1,90,30.12,10.0,ENE,3.5,-,N/A,,Clear,70,2012-03-22 10:53:00
7:53 AM,59.0,54.0,83,30.14,10.0,NNW,3.5,-,N/A,,Scattered Clouds,340,2012-03-22 11:53:00
8:53 AM,62.1,54.0,75,30.16,10.0,North,3.5,-,N/A,,Scattered Clouds,350,2012-03-22 12:53:00
9:53 AM,66.9,55.9,68,30.17,10.0,North,3.5,-,N/A,,Scattered Clouds,10,2012-03-22 13:53:00
10:53 AM,72.0,55.9,57,30.17,10.0,ENE,3.5,-,N/A,,Scattered Clouds,60,2012-03-22 14:53:00
11:53 AM,75.9,55.9,50,30.17,10.0,Calm,Calm,-,N/A,,Scattered Clouds,0,2012-03-22 15:53:00
12:53 PM,77.0,57.0,50,30.15,10.0,SSW,10.4,-,N/A,,Mostly Cloudy,200,2012-03-22 16:53:00
1:53 PM,78.1,55.9,46,30.14,10.0,SSE,8.1,-,N/A,,Mostly Cloudy,150,2012-03-22 17:53:00
2:53 PM,79.0,55.0,44,30.10,10.0,East,3.5,-,N/A,,Mostly Cloudy,100,2012-03-22 18:53:00
3:53 PM,78.1,57.0,48,30.09,10.0,Variable,3.5,-,N/A,,Mostly Cloudy,0,2012-03-22 19:53:00
4:31 PM,69.8,59.0,68,30.13,8.0,South,9.2,19.6,0.01,Rain-Thunderstorm,Light Thunderstorms and Rain,190,2012-03-22 20:31:00
4:53 PM,70.0,60.1,71,30.10,10.0,West,8.1,-,0.01,Thunderstorm,Thunderstorm,260,2012-03-22 20:53:00
5:18 PM,69.8,60.8,73,30.11,10.0,NW,8.1,-,N/A,,Mostly Cloudy,310,2012-03-22 21:18:00
5:53 PM,73.0,61.0,66,30.08,10.0,NNE,6.9,-,N/A,,Scattered Clouds,20,2012-03-22 21:53:00
6:53 PM,71.1,61.0,70,30.08,10.0,NNE,5.8,-,N/A,,Scattered Clouds,20,2012-03-22 22:53:00
7:53 PM,70.0,60.1,71,30.09,10.0,Calm,Calm,-,N/A,,Scattered Clouds,0,2012-03-22 23:53:00
8:53 PM,69.1,60.1,73,30.09,10.0,Calm,Calm,-,N/A,,Scattered Clouds,0,2012-03-23 00:53:00
9:53 PM,64.9,59.0,81,30.11,10.0,SW,4.6,-,N/A,,Clear,230,2012-03-23 01:53:00
10:53 PM,66.0,61.0,84,30.10,10.0,Calm,Calm,-,N/A,,Scattered Clouds,0,2012-03-23 02:53:00
11:53 PM,66.9,60.1,79,30.08,10.0,SSE,3.5,-,N/A,,Scattered Clouds,150,2012-03-23 03:53:00